STARLINK-35661

Last updated on Wed Dec 10 2025 00:02:05 GMT+0000 (Coordinated Universal Time)

1 66387U 25257H 25343.12603714 .00051755 00000+0 12949-2 0 9991 2 66387 53.1594 281.5253 0001038 87.1065 273.0059 15.39623682 5819
UTC large
Height (km)
Speed (km/s)
/
Latitude / Longitude
Inclination (degrees)
Orbital Period (minutes)
Azimuth
Elevation
Range (km)
Doppler Factor

Next 0 passes for location: London (51.5072 / 0.1276)

Sorry there are no passes over London.